IRIDIUM 106 1 41917U 17003A 26120.44359111 .00000057 00000+0 13293-4 0 9995 2 41917 86.3927 108.5190 0002588 82.7598 277.3892 14.34217839486362 IRIDIUM 103 1 41918U 17003B 26120.50067395 .00000020 00000+0 -23622-7 0 9994 2 41918 86.3927 108.3950 0002353 95.5555 264.5909 14.34217472486393 IRIDIUM 109 1 41919U 17003C 26120.50701624 .00000014 00000+0 -22205-5 0 9992 2 41919 86.3931 108.4513 0002187 90.1918 269.9528 14.34217374486368 IRIDIUM 102 1 41920U 17003D 26120.47530334 .00000021 00000+0 55806-6 0 9999 2 41920 86.3927 108.3890 0002249 87.2520 272.8934 14.34217719486443 IRIDIUM 105 1 41921U 17003E 26120.57406653 .00000215 00000+0 69555-4 0 9996 2 41921 86.3947 76.7740 0002310 87.5403 272.6057 14.34396716488317 IRIDIUM 104 1 41922U 17003F 26120.48798811 .00000019 00000+0 -38015-6 0 9999 2 41922 86.3928 108.4255 0002223 95.7405 264.4044 14.34217529486437 IRIDIUM 114 1 41923U 17003G 26120.49433128 .00000042 00000+0 79057-5 0 9993 2 41923 86.3927 108.4063 0002268 93.2695 266.8760 14.34217885486411 IRIDIUM 108 1 41924U 17003H 26120.38308446 .00000003 00000+0 -59697-5 0 9992 2 41924 86.3943 76.7466 0002087 82.5177 277.6256 14.34217357488257 IRIDIUM 112 1 41925U 17003J 26120.48164607 .00000032 00000+0 45214-5 0 9994 2 41925 86.3924 108.2558 0002192 91.7164 268.4283 14.34217831486438 IRIDIUM 111 1 41926U 17003K 26120.46895954 .00000118 00000+0 35099-4 0 9993 2 41926 86.3925 108.3305 0002333 90.5379 269.6085 14.34218700486410 IRIDIUM 113 1 42803U 17039A 26120.58846219 .00000007 00000+0 -45570-5 0 9994 2 42803 86.3982 342.0819 0001933 92.7267 267.4150 14.34217607464364 IRIDIUM 123 1 42804U 17039B 26120.62994203 .00000064 00000+0 15915-4 0 9998 2 42804 86.4015 13.5124 0002348 85.9638 274.1826 14.34217625463138 IRIDIUM 120 1 42805U 17039C 26120.58212016 -.00000008 00000+0 -10070-4 0 9996 2 42805 86.3972 341.8732 0002087 82.4250 277.7183 14.34217353464352 IRIDIUM 115 1 42806U 17039D 26120.62694946 .00000353 00000+0 98913-4 0 9991 2 42806 86.4512 341.9772 0002470 85.4373 274.7110 14.43278575467403 IRIDIUM 118 1 42807U 17039E 26120.66165382 .00000095 00000+0 26960-4 0 9999 2 42807 86.4012 13.4973 0002166 86.1805 273.9638 14.34218305463130 IRIDIUM 117 1 42808U 17039F 26120.61091423 .00000089 00000+0 24730-4 0 9995 2 42808 86.4010 13.4767 0002312 86.5253 273.6208 14.34217304463154 IRIDIUM 126 1 42809U 17039G 26120.63628435 .00000000 00000+0 -69472-5 0 9994 2 42809 86.4008 13.5162 0002107 88.8091 271.3346 14.34217515463139 IRIDIUM 124 1 42810U 17039H 26120.56079841 .00000114 00000+0 27876-4 0 9995 2 42810 86.4455 310.2877 0002218 89.3268 270.8187 14.43282013468241 IRIDIUM 128 1 42811U 17039J 26120.48748602 .00000059 00000+0 13924-4 0 9992 2 42811 86.3992 45.0836 0002387 80.5773 279.5692 14.34217401463146 IRIDIUM 121 1 42812U 17039K 26120.65532395 .00000249 00000+0 81839-4 0 9993 2 42812 86.4014 13.5358 0002192 82.2152 277.9293 14.34221477463019 IRIDIUM 133 1 42955U 17061A 26120.51919855 -.00000005 00000+0 -89978-5 0 9996 2 42955 86.3991 45.1870 0002175 84.8597 275.2847 14.34217413447947 IRIDIUM 100 1 42956U 17061B 26120.51285580 .00000034 00000+0 52165-5 0 9996 2 42956 86.3991 45.1091 0002258 84.1492 275.9961 14.34217365447942 IRIDIUM 122 1 42957U 17061C 26120.34160579 .00000011 00000+0 -31807-5 0 9994 2 42957 86.3988 45.1809 0002165 86.5728 273.5715 14.34217563447920 IRIDIUM 129 1 42958U 17061D 26120.50651227 .00000026 00000+0 21262-5 0 9997 2 42958 86.3993 45.1784 0001965 88.9501 271.1920 14.34217724447966 IRIDIUM 119 1 42959U 17061E 26120.54456902 .00000011 00000+0 -31497-5 0 9991 2 42959 86.3994 45.1582 0002238 88.3203 271.8249 14.34217528447986 IRIDIUM 107 1 42960U 17061F 26120.21475452 -.00000021 00000+0 -14466-4 0 9996 2 42960 86.3989 45.3171 0002372 86.4960 273.6507 14.34217416447945 IRIDIUM 132 1 42961U 17061G 26120.50017079 .00000024 00000+0 15653-5 0 9997 2 42961 86.3989 45.1776 0002158 84.7915 275.3528 14.34217594447981 IRIDIUM 136 1 42962U 17061H 26120.32257826 .00000010 00000+0 -34053-5 0 9995 2 42962 86.3993 45.2581 0002294 87.1334 273.0125 14.34217613447974 IRIDIUM 139 1 42963U 17061J 26120.53822635 -.00000011 00000+0 -10813-4 0 9994 2 42963 86.3990 45.2292 0002219 82.9603 277.1845 14.34217382448013 IRIDIUM 125 1 42964U 17061K 26120.52554149 .00000012 00000+0 -26553-5 0 9995 2 42964 86.3996 45.2948 0002489 96.2031 263.9448 14.34217588448021 IRIDIUM 135 1 43070U 17083A 26120.63920360 -.00000034 00000+0 -19291-4 0 9997 2 43070 86.3976 341.9003 0002038 86.3691 273.7738 14.34217228437332 IRIDIUM 138 1 43071U 17083B 26120.59480490 .00000009 00000+0 -38811-5 0 9999 2 43071 86.3989 341.6072 0001960 95.7182 264.4238 14.34217594437318 IRIDIUM 116 1 43072U 17083C 26120.63288006 .00000267 00000+0 88170-4 0 9991 2 43072 86.3979 341.8901 0002306 79.0431 281.1024 14.34212653437352 IRIDIUM 130 1 43073U 17083D 26120.60114821 .00000017 00000+0 -11057-5 0 9997 2 43073 86.3984 342.1733 0002277 84.0351 276.1105 14.34217613437298 IRIDIUM 151 1 43074U 17083E 26120.57577748 .00000003 00000+0 -61005-5 0 9998 2 43074 86.3978 341.9701 0002034 84.3107 275.8321 14.34217531437315 IRIDIUM 134 1 43075U 17083F 26120.61383350 .00000035 00000+0 55135-5 0 9999 2 43075 86.3984 341.9620 0002256 86.3393 273.8061 14.34217634437287 IRIDIUM 137 1 43076U 17083G 26120.62651792 -.00000048 00000+0 -24137-4 0 9992 2 43076 86.3980 342.0481 0001866 71.8927 288.2472 14.34217053437358 IRIDIUM 141 1 43077U 17083H 26120.62017515 .00000226 00000+0 73693-4 0 9999 2 43077 86.3981 341.8846 0002098 88.1313 272.0123 14.34216764437352 IRIDIUM 153 1 43078U 17083J 26120.57235395 -.00000005 00000+0 -87713-5 0 9998 2 43078 86.3932 310.3927 0002077 95.6240 264.5192 14.34217490438450 IRIDIUM 131 1 43079U 17083K 26120.60749019 .00000059 00000+0 14018-4 0 9990 2 43079 86.3987 342.0726 0002080 87.2359 272.9074 14.34217881437288 IRIDIUM 144 1 43249U 18030A 26120.57869985 .00000071 00000+0 18312-4 0 9998 2 43249 86.3930 310.3205 0002198 85.9063 274.2384 14.34217849423314 IRIDIUM 149 1 43250U 18030B 26120.58504206 .00000068 00000+0 17367-4 0 9998 2 43250 86.3930 310.2854 0002078 91.1145 269.0289 14.34217918423337 IRIDIUM 157 1 43251U 18030C 26120.60406667 .00000067 00000+0 17001-4 0 9998 2 43251 86.3931 310.3295 0002163 89.3316 270.8128 14.34218278423313 IRIDIUM 140 1 43252U 18030D 26120.62309682 .00000083 00000+0 22667-4 0 9992 2 43252 86.3933 310.3343 0002221 88.8874 271.2576 14.34218193423372 IRIDIUM 145 1 43253U 18030E 26120.61040983 .00000054 00000+0 12114-4 0 9992 2 43253 86.3932 310.3120 0002295 81.8511 278.2945 14.34218109423304 IRIDIUM 146 1 43254U 18030F 26120.59138171 .00000052 00000+0 11429-4 0 9993 2 43254 86.3930 310.3322 0002198 86.6675 273.4772 14.34218131423314 IRIDIUM 148 1 43255U 18030G 26120.62945564 .00000240 00000+0 78721-4 0 9997 2 43255 86.3934 310.3587 0002059 87.8125 272.3307 14.34218457423358 IRIDIUM 142 1 43256U 18030H 26120.59774369 .00000070 00000+0 17757-4 0 9990 2 43256 86.3930 310.2628 0002257 84.3559 275.7894 14.34217856423319 IRIDIUM 150 1 43257U 18030J 26120.56601106 .00000037 00000+0 62506-5 0 9992 2 43257 86.3934 310.3908 0002179 88.3726 271.7720 14.34217879423330 IRIDIUM 143 1 43258U 18030K 26120.47721602 -.00000030 00000+0 -17707-4 0 9994 2 43258 86.3934 310.5185 0002125 86.0248 274.1190 14.34217155423251 IRIDIUM 161 1 43478U 18047C 26120.46937586 .00000037 00000+0 49561-5 0 9994 2 43478 86.4448 108.4263 0002081 92.0195 268.1244 14.43278004418253 IRIDIUM 152 1 43479U 18047D 26120.44993292 .00000010 00000+0 -34251-5 0 9991 2 43479 86.3925 108.2952 0002112 91.7388 268.4050 14.34217616415641 IRIDIUM 147 1 43480U 18047E 26120.52604403 .00000016 00000+0 -13388-5 0 9999 2 43480 86.3928 108.2678 0002200 86.0207 274.1240 14.34217600415655 IRIDIUM 110 1 43481U 18047F 26120.46261773 .00000000 00000+0 -70619-5 0 9995 2 43481 86.3930 108.3849 0001886 96.7103 263.4308 14.34217250415637 IRIDIUM 162 1 43482U 18047G 26120.46307131 .00000141 00000+0 35831-4 0 9996 2 43482 86.4448 108.3205 0002421 91.1156 269.0323 14.43278843418246 IRIDIUM 160 1 43569U 18061A 26120.40845257 .00000140 00000+0 42776-4 0 9993 2 43569 86.3947 76.7711 0002102 86.2511 273.8925 14.34218742406522 IRIDIUM 166 1 43570U 18061B 26120.57337733 .00000260 00000+0 85760-4 0 9991 2 43570 86.3945 76.6531 0002337 83.3038 276.8424 14.34220117406574 IRIDIUM 158 1 43571U 18061C 26120.61141786 -.00000006 00000+0 -90841-5 0 9995 2 43571 86.3944 76.6475 0002209 88.8510 271.2939 14.34217395406545 IRIDIUM 165 1 43572U 18061D 26120.42748277 .00000004 00000+0 -55526-5 0 9991 2 43572 86.3946 76.7698 0002186 82.6247 277.5197 14.34217370406547 IRIDIUM 155 1 43573U 18061E 26120.38942749 .00000010 00000+0 -36094-5 0 9993 2 43573 86.3943 76.6571 0002276 86.6706 273.4750 14.34217342406503 IRIDIUM 154 1 43574U 18061F 26120.37039884 .00000042 00000+0 79125-5 0 9996 2 43574 86.3946 76.7961 0002278 82.1941 277.9513 14.34217800406555 IRIDIUM 163 1 43575U 18061G 26120.63044387 .00000197 00000+0 63394-4 0 9991 2 43575 86.3944 76.6041 0002247 89.0365 271.1088 14.34217116406568 IRIDIUM 156 1 43576U 18061H 26120.60507568 .00000018 00000+0 -67421-6 0 9994 2 43576 86.3943 76.6222 0002321 85.3874 274.7587 14.34217487406559 IRIDIUM 164 1 43577U 18061J 26120.37674176 .00000057 00000+0 13118-4 0 9993 2 43577 86.3945 76.7570 0002225 81.6204 278.5244 14.34217558406560 IRIDIUM 159 1 43578U 18061K 26120.62410329 -.00000046 00000+0 -23313-4 0 9998 2 43578 86.3943 76.5916 0002055 87.5985 272.5446 14.34217025406560 IRIDIUM 180 1 43922U 19002A 26120.62359848 .00000079 00000+0 21261-4 0 9999 2 43922 86.4014 13.4757 0002088 86.5084 273.6351 14.34217239382175 IRIDIUM 176 1 43923U 19002B 26120.44565654 .00000471 00000+0 70757-4 0 9994 2 43923 86.6138 13.5004 0002413 79.9234 280.2255 14.72245067392222 IRIDIUM 168 1 43924U 19002C 26120.61725912 .00000262 00000+0 86557-4 0 9992 2 43924 86.4015 13.5543 0002147 84.7508 275.3932 14.34222103382157 IRIDIUM 173 1 43925U 19002D 26120.18596021 .00000025 00000+0 18846-5 0 9996 2 43925 86.4012 13.6253 0002252 88.0448 272.1006 14.34217666382077 IRIDIUM 169 1 43926U 19002E 26120.32831595 .00000304 00000+0 92863-4 0 9991 2 43926 86.4247 45.1926 0002850 90.1332 270.0193 14.38610605383344 IRIDIUM 172 1 43927U 19002F 26120.24938071 .00000248 00000+0 81394-4 0 9994 2 43927 86.4015 13.6063 0002126 85.6057 274.5382 14.34216609382091 IRIDIUM 175 1 43928U 19002G 26120.58678332 .00000103 00000+0 24495-4 0 9992 2 43928 86.4486 310.4327 0004516 48.1462 312.0124 14.43591020392113 IRIDIUM 171 1 43929U 19002H 26120.64896973 -.00000049 00000+0 -24521-4 0 9994 2 43929 86.4016 13.7403 0002191 81.8998 278.2446 14.34217325382141 IRIDIUM 170 1 43930U 19002J 26120.65573481 .00000600 00000+0 91253-4 0 9990 2 43930 86.6132 13.4154 0002200 85.1037 275.0431 14.72258488392266 IRIDIUM 167 1 43931U 19002K 26120.64262739 .00000015 00000+0 -17405-5 0 9990 2 43931 86.4006 13.4641 0002361 80.4442 279.7020 14.34217592382142 IRIDIUM 181 1 56726U 23068S 26120.61582300 .00000145 00000+0 36990-4 0 9991 2 56726 86.4482 76.6725 0002114 82.0357 278.1084 14.43308813155574 IRIDIUM 177 1 56727U 23068T 26120.59591533 .00001027 00000+0 13162-3 0 9992 2 56727 86.1988 351.3979 0002328 92.8246 267.3241 14.80243459159327 IRIDIUM 174 1 56728U 23068U 26120.64338295 .00000680 00000+0 10391-3 0 9998 2 56728 86.6141 13.5629 0002379 90.2879 269.8611 14.72251246159022 IRIDIUM 178 1 56729U 23068V 26120.51734895 .00001265 00000+0 16312-3 0 9990 2 56729 86.6561 45.2726 0002372 80.1300 280.0189 14.80231822159313 IRIDIUM 179 1 56730U 23068W 26120.30917298 .00000590 00000+0 74200-4 0 9990 2 56730 86.6790 54.1978 0002778 81.1931 278.9605 14.80228304159284